Regional Weather Roundup
Issued by NWS

Home | Current Version | Previous Version | Graphics & Text | Print | Product List | Glossary On
Versions: 1 2 3 4 5 6 7 8 9 10 11 12 13 14 15 16 17 18 19 20 21 22 23 24 25 26 27 28 29 30 31 32 33 34 35 36 37 38 39 40 41 42 43 44 45 46 47 48 49 50
000
ASUS45 KBOU 192307
RWRCO

WEATHER ROUNDUP FOR COLORADO
NATIONAL WEATHER SERVICE DENVER/BOULDER CO
500 PM MDT SUN APR 19 2015

NOTE: "FAIR" INDICATES FEW OR NO CLOUDS BELOW 12000 FEET WITH NO
SIGNIFICANT WEATHER AND/OR OBSTRUCTIONS TO VISIBILITY.

COZ001>005-013-030-031-200000-
...NORTHWEST COLORADO...

CITY           SKY/WX    TMP DP  RH WIND       PRES   REMARKS
CRAIG          PTSUNNY   49  26  41 VRB5      30.07F
HAYDEN         MOSUNNY   46  21  36 NW12      30.07F
MEEKER         CLOUDY    48  33  56 S6        30.06F
MOUNT WERNER   NOT AVBL
STEAMBOAT SPGS CLOUDY    45  27  49 W9        30.06S
WALDEN         CLOUDY    36  21  55 NW12      30.08S
$$

COZ006>008-011-200000-
...WEST CENTRAL VALLEYS...

CITY           SKY/WX    TMP DP  RH WIND       PRES   REMARKS
GRAND JUNCTION CLOUDY    58  35  42 NE9       29.99F
MONTROSE       CLOUDY    56  29  35 N6        30.04F
EAGLE          PTSUNNY   50  27  40 CALM      30.06F
RIFLE          CLOUDY    56  32  40 VRB3      30.03F
DELTA          PTSUNNY   60  33  37 CALM      30.02S
NUCLA          MOSUNNY   54  34  47 E14       30.07F
$$

COZ017>023-064>068-200000-
...SOUTHWEST COLORADO...

CITY           SKY/WX    TMP DP  RH WIND       PRES   REMARKS
DURANGO        PTSUNNY   58  17  20 N8        29.95F
CORTEZ         SUNNY     62  21  20 NW17G24   29.99F
PAGOSA SPRINGS DRIZZLE   51  19  28 SW17G32   30.00S
TELLURIDE      PTSUNNY   42  22  43 N5        30.12S
WOLF CREEK PAS CLOUDY    30  19  64 SW13G18   30.16S WCI  20
$$

COZ009-010-012-014-032>034-037-058>063-200000-
...CENTRAL COLORADO...

CITY           SKY/WX    TMP DP  RH WIND       PRES   REMARKS
ASPEN          PTSUNNY   44  26  49 VRB6G20   30.06F
BUENA VISTA    PTSUNNY   45  20  37 NW13      30.02S
COPPER MTN     CLOUDY    27  21  80 W18G25    30.11F WCI  13
BERTHOUD PASS  CLOUDY    18   9  68 NW29G39   30.08F WCI  -2
COTTONWOOD PAS PTSUNNY   43  18  36 W14G20    30.07S
GUNNISON       MOSUNNY   48  19  32 N12       30.08S
KREMMLING      CLOUDY    43  21  42 N5        30.07F
LEADVILLE      LGT SNOW  30  23  75 NW12      30.07S WCI  20
MONARCH PASS   SNOW      25  23  93 MISG      30.23R VSB 1/2
SALIDA         PTSUNNY   47  32  56 W21G29    30.09S
SUNLIGHT       CLOUDY    32  30  93 NW3       30.18S
WILKERSON PASS CLOUDY    32  23  69 CALM      30.12S
$$

COZ069>075-200000-
...SAN LUIS VALLEY/SANGRE DE CRISTO MOUNTAINS...

CITY           SKY/WX    TMP DP  RH WIND       PRES   REMARKS
ALAMOSA        CLOUDY    53  13  20 N14G25    29.97F
LA VETA PASS   CLOUDY    37  30  75 NE14      30.08S
SAGUACHE       MOSUNNY   50  23  34 N17G32    30.03S
$$

COZ035-036-038>040-200000-
...NORTHERN COLORADO FRONT RANGE...

CITY           SKY/WX    TMP DP  RH WIND       PRES   REMARKS
DENVER INTL AP PTSUNNY   50  26  39 N23G32    30.03F
DMNS CITY PARK   N/A     48  22  36 N6        30.04R
AURORA         NOT AVBL
FRONT RANGE AP PTSUNNY   48  28  46 N20G25    30.05S
ERIE MUNI ARPT PTSUNNY   51  27  40 N6        30.03R
BOULDER MUN AP PTSUNNY   50  27  40 E5        30.02S
CENTENNIAL     PTSUNNY   45  25  45 NE9       30.04S
BROOMFIELD     PTSUNNY   48  25  40 VRB5      30.04F
FORT COLLINS   MOSUNNY   52  21  30 N24       30.04S
LONGMONT       MOSUNNY   55  29  37 NE6       30.04S
$$

COZ041-046-047-076>085-087-088-200000-
...PIKES PEAK/PALMER DIVIDE AND SOUTHERN FOOTHILLS...

CITY           SKY/WX    TMP DP  RH WIND       PRES   REMARKS
COLO. SPRINGS  PTSUNNY   50  28  42 N14       30.03S
A. F. ACADEMY  NOT AVBL
ELLICOTT       PTSUNNY  N/A N/A N/A N20G25    30.01F
FALCON         MOSUNNY   44  25  48 N16       30.04S
FORT CARSON    NOT AVBL
LIMON          MOSUNNY   49  23  36 N26G35    30.02S
MONUMENT HILL  SUNNY     37  25  60 N13       30.04R
TRINIDAD       SUNNY     51  25  36 NE13      30.01S
$$

COZ042>045-048>051-090-091-200000-
...NORTHEAST COLORADO...

CITY           SKY/WX    TMP DP  RH WIND       PRES   REMARKS
GREELEY ARPT   SUNNY     52  23  32 N32G40    30.03S
AKRON          PTSUNNY   46  21  37 N28G36    30.02S
BURLINGTON     MOSUNNY   50  22  33 N22G38    30.00S
WRAY           PTSUNNY   52  20  29 NW21G31   30.00S
STERLING       MOSUNNY   50  23  34 N24G32    30.01S
HOLYOKE        MOSUNNY   54  21  28 NW25G33   29.99S
FORT MORGAN    PTSUNNY   51  22  32 N22G28    30.04S
$$

COZ086-089-092>099-200000-
...SOUTHEAST COLORADO...

CITY           SKY/WX    TMP DP  RH WIND       PRES   REMARKS
PUEBLO         MOSUNNY   54  29  38 E8        29.99F
LA JUNTA       PTSUNNY   56  26  31 N21       30.00S
LAMAR          SUNNY     55  28  35 N24       29.98S
SPRINGFIELD      N/A     51  27  39 N24G33    29.98F
$$



USA.gov is the U.S. government's official web portal to all federal, state and local government web resources and services.